Weather in Kushadasi

Turkey     37°51′37″N   27°15′23″E
temp.,
°C
wind,
m/s
gust,
m/s
humid.,
%
clouds,
%
prec.,
mm/h
press.,
hPa
HPBL,
m
16 june, wed
wed1600:00+18nw44685 0.0 1011299
03:00+17nnw23690 0.0 1011228
06:00+17nnw2373100 0.1 1010239
09:00+19nw236393 0.1 1012566
12:00+20nw6660100 0.1 10131043
15:00+20wnw456387 0.1 1013835
18:00+20nnw346260 0.0 1014523
21:00+19n22751 0.0 101579
17 june, thu
thu1700:00+19nne22830 0.0 101588
03:00+18ene22850 0.0 101672
06:00+17ne22820 0.0 101679
09:00+21n22620 0.0 1017379
12:00+23wnw44590 0.0 1017799
15:00+24nw44550 0.0 1016548
18:00+25nw57575 0.0 1015507
21:00+22wnw33740 0.0 101646
18 june, fri
fri1800:00+21nw33790 0.0 101638
03:00+20nw22820 0.0 101530
06:00+19nne22785 0.0 101433
09:00+23nnw23610 0.0 1014323
12:00+25wnw44560 0.0 1014744
15:00+26wnw47540 0.0 1012513
18:00+26wnw610560 0.0 1011419
21:00+22wnw46730 0.0 101280
19 june, sat
sat1900:00+21nw457511 0.0 101269
03:00+20nw33785 0.0 101140
06:00+20nw2279100 0.0 101148
09:00+23nw336468 0.0 1011315
12:00+24wnw456317 0.0 1011483
15:00+26wnw585799 0.0 1009521
18:00+25wnw58582 0.0 1009407
21:00+23w45720 0.0 100975
20 june, sun
sun2000:00+21wnw44830 0.0 101057
03:00+21nw33823 0.0 101039
06:00+20nnw23824 0.0 101052
09:00+23nw33674 0.0 1010358
12:00+24wnw44644 0.0 1010470
15:00+26wnw57595 0.0 1009513
18:00+26wnw575840 0.3 1009397
21:00+22nne227970 0.9 101029